Regional Weather Roundup
Issued by NWS

Home | Current Version | Previous Version | Graphics & Text | Print | Product List | Glossary On
Versions: 1 2 3 4 5 6 7 8 9 10 11 12 13 14 15 16 17 18 19 20 21 22 23 24 25 26 27 28 29 30 31 32 33 34 35 36 37 38 39 40 41 42 43 44 45 46 47 48 49 50
706
ASUS43 KDTX 041710
RWRMI
MICHIGAN HOURLY REGIONAL WEATHER ROUNDUP
NATIONAL WEATHER SERVICE DETROIT/PONTIAC MI
ISSUED BY NATIONAL WEATHER SERVICE GRAND RAPIDS MI
1200 PM EST SUN DEC 04 2016

NOTE: "FAIR" INDICATES FEW OR NO CLOUDS BELOW 12,000 FEET WITH NO
SIGNIFICANT WEATHER AND/OR OBSTRUCTION TO VISIBILITY.

MIZ047>049-052>055-059>063-066>070-074>076-081>083-041800-
SOUTHEAST LOWER MICHIGAN

CITY           SKY/WX    TMP DP  RH WIND       PRES   REMARKS
ADRIAN         CLOUDY    36  29  75 S6        30.14F WCI  31
ALMA           CLOUDY    36  28  74 S8        30.15F WCI  30
ANN ARBOR      CLOUDY    36  26  67 SE8       30.15F WCI  30
BAD AXE        CLOUDY    35  32  88 S3        30.17F
DETROIT CITY   CLOUDY    38  28  67 S5        30.17F WCI  34
DETROIT        CLOUDY    38  28  67 S7        30.18F WCI  33
FLINT          CLOUDY    37  26  64 S7        30.16F WCI  32
GROSSE ILE     CLOUDY    38  28  67 S7        30.17F WCI  33
HILLSDALE      CLOUDY    34  28  80 SE7       30.09F WCI  28
HOWELL         CLOUDY    36  26  67 SE9       30.14F WCI  29

CITY           SKY/WX    TMP DP  RH WIND       PRES   REMARKS
JACKSON        CLOUDY    36  26  67 SE9       30.12F WCI  29
LANSING        CLOUDY    36  24  62 SE9       30.14F WCI  29
MASON          CLOUDY    35  28  76 S6        30.13F WCI  30
MONROE         CLOUDY    38  28  67 SE8       30.15F WCI  32
MT. CLEMENS    CLOUDY    39  28  66 S12       30.15F WCI  32
PONTIAC        CLOUDY    36  26  67 S7        30.14F WCI  30
PORT HOPE        N/A     38  32  79 CALM      30.16F
PORT HURON     PTSUNNY   37  30  75 CALM      30.18F
TRI CITIES     CLOUDY    37  29  72 SE7       30.17F WCI  32
YPSILANTI      CLOUDY    38  28  67 S7        30.17F WCI  33
$$
MIZ043>046-050>051-056>058-064>065-071>073-077>080-041800-
SOUTHWEST LOWER MICHIGAN

CITY           SKY/WX    TMP DP  RH WIND       PRES   REMARKS
BATTLE CREEK   CLOUDY    35  27  72 SE7       30.10F WCI  29
BENTON HARBOR  CLOUDY    36  27  69 SE9       30.08F WCI  29
BIG RAPIDS     CLOUDY    37  26  64 S10       30.10F WCI  29
COLDWATER      PTSUNNY   37  27  68 E7        30.08F WCI  31
HOLLAND        CLOUDY    36  27  69 SE10      30.10F WCI  28
GRAND RAPIDS   CLOUDY    36  25  64 SE6       30.12F WCI  31
KALAMAZOO      CLOUDY    36  26  67 SE5       30.09F WCI  32
MARSHALL       CLOUDY    36  28  73 E7        30.11F WCI  30
MOUNT PLEASANT CLOUDY    36  28  73 SE5       30.14F WCI  32
MUSKEGON       CLOUDY    38  26  62 SE14G20   30.10F WCI  30
STURGIS        CLOUDY    37  28  70 SE9       30.07F WCI  30
$$
MIZ016>042-041800-
NORTHERN LOWER MICHIGAN

CITY           SKY/WX    TMP DP  RH WIND       PRES   REMARKS
ALPENA         CLOUDY    39  32  76 S7        30.15F WCI  34
BEAVER ISLAND  CLOUDY    36  30  78 SE7       30.08F WCI  31
BELLAIRE       CLOUDY    34  30  85 S6        30.12F WCI  29
CADILLAC       CLOUDY    32  27  80 S8        30.08F WCI  25
CHARLEVOIX     CLOUDY    34  31  87 SE8       30.14F WCI  28
GAYLORD        CLOUDY    34  26  72 S9        30.10F WCI  27
HOUGHTON LAKE  CLOUDY    33  26  75 SE8       30.13F WCI  26
MANISTEE       LGT SNOW  34  30  86 SE5       30.09F VSB 1   WCI  30
OSCODA         CLOUDY    40  29  65 S5        30.15F
PELLSTON       CLOUDY    35  29  78 S5        30.12F WCI  31
TRAVERSE CITY  CLOUDY    37  29  72 VRB5      30.11F WCI  33
LUDINGTON      LGT SNOW  32  31  98 SE5       30.09F WCI  27
$$
MIZ007>008-015-041800-
EASTERN UPPER MICHIGAN

CITY           SKY/WX    TMP DP  RH WIND       PRES   REMARKS
KINROSS        LGT SNOW  32  31  96 SE12      30.13F FOG     WCI  23
MACKINAC ISLAN CLOUDY    36  30  79 S3        30.12F
NEWBERRY       CLOUDY    33  32  96 SE8       30.07F WCI  26
S. S. MARIE    CLOUDY    32  28  85 E7        30.13F WCI  26
$$
MIZ004>006-011>014-085-041800-
CENTRAL UPPER MICHIGAN

CITY           SKY/WX    TMP DP  RH WIND       PRES   REMARKS
MANISTIQUE     CLOUDY    32  30  92 NE3       30.06F
ESCANABA       CLOUDY    34  25  69 SW6       30.07F WCI  29
MENOMINEE      MIX PCPN  32  28  85 SW7       30.07F WCI  26
SAWYER-GWINN   CLOUDY    30  21  69 S14       30.02F WCI  20
$$
MIZ001>003-009>011-084-041800-
WESTERN UPPER MICHIGAN

CITY           SKY/WX    TMP DP  RH WIND       PRES   REMARKS
IRON MOUNTAIN  LGT SNOW  29  24  82 S6        30.00F WCI  23
HOUGHTON       CLOUDY    30  22  72 S12       29.97F WCI  20
COPPER HARBOR    N/A     33  27  78 VRB3      30.01F
IRONWOOD       LGT SNOW  30  27  88 SE8       29.92F FOG     WCI  22
$$

ABBREVIATIONS USED IN REMARKS
   TC - TEMPERATURE IN CELSIUS
  WCI - WIND CHILL INDEX
   HX - HEAT INDEX
  VSB - VISIBILITY





USA.gov is the U.S. government's official web portal to all federal, state and local government web resources and services.